Regional Weather Roundup
Issued by NWS Upton, NY

Current Version | Previous Version | Text Only | Print | Product List | Glossary Off
Versions: 1 2 3 4 5 6 7 8 9 10 11 12 13 14 15 16 17 18 19 20 21 22 23 24 25 26 27 28 29 30 31 32 33 34 35 36 37 38 39 40 41 42 43 44 45 46 47 48 49 50
000 ASUS41 KOKX 272205 RWROKX REGIONAL WEATHER ROUNDUP NATIONAL WEATHER SERVICE NEW YORK NY 600 PM EDT TUE SEP 27 2016 NOTE: "FAIR" INDICATES FEW OR NO CLOUDS BELOW 12,000 FEET WITH NO SIGNIFICANT WEATHER AND/OR OBSTRUCTIONS TO VISIBILITY. NYZ071-072-176-178-NJZ106-104-272300- NEW YORK CITY METRO AREA CITY SKY/WX TMP DP RH WIND PRES REMARKS Central Park CLEAR 71 50 47 W6 29.91R LaGuardia APRT PTCLDY 75 49 39 SW12 29.88R Kennedy INTL PTCLDY 71 58 63 S13 29.90R Newark/Liberty PTCLDY 74 48 39 SW7 29.89R Bronx Bot Gard N/A 73 46 38 SW15 29.91R Wall St Helipt CLEAR 75 59 57 SW7 29.90R Teterboro CLEAR 74 48 39 S7 29.87R $$ NYZ177-179-078>081-272300- LONG ISLAND NEW YORK CITY SKY/WX TMP DP RH WIND PRES REMARKS Farmingdale PTCLDY 71 57 61 SW10 29.90R MacArthur/ISP MOCLDY 69 62 78 S8 29.90R Shirley MOCLDY 68 62 81 SW5 29.92R Riverhead NOT AVBL Westhampton CLOUDY 68 62 81 SW5 29.93R Southampton N/A 68 63 83 SW5 29.88R Bridgehampton N/A 68 63 83 CALM 29.77R East Hampton FAIR 67 63 86 S3 29.91R Montauk N/A 68 64 87 CALM 29.93R $$ NYZ052-065-067-272300- HUDSON VALLEY CITY SKY/WX TMP DP RH WIND PRES REMARKS White Plains PTCLDY 70 53 54 SW3 29.89R Newburgh CLEAR 70 52 52 SW8 29.91R Montgomery CLEAR 70 52 52 SW5 29.89R Poughkeepsie CLEAR 71 51 49 W6 29.88R Albany PTCLDY 70 48 45 S6 29.89R $$ NJZ001-105-106-008-010-013-015-019>022-104-272300- NEW JERSEY CITY SKY/WX TMP DP RH WIND PRES REMARKS Newark/Liberty PTCLDY 74 48 39 SW7 29.89R Teterboro CLEAR 74 48 39 S7 29.87R Caldwell CLEAR 73 48 41 SW3 29.90R Morristown PTCLDY 72 50 46 W6 29.90R Somerville CLEAR 72 48 42 SW3 29.88R Linden NOT AVBL Sussex CLEAR 70 51 51 CALM 29.90R Abdover N/A 67 52 58 CALM 29.90R Trenton CLEAR 73 47 39 SW5 29.89R Millville CLOUDY 68 63 84 CALM 29.92R Atlantic City CLOUDY 67 61 81 CALM 29.92R Wrightstown PTCLDY 73 58 59 S6 29.87S Toms River CLOUDY 70 64 81 S5 29.92R Belmar CLOUDY 72 60 66 S5 29.91S $$ PAZ047>061-062-071-272300- EASTERN PENNSYLVANIA CITY SKY/WX TMP DP RH WIND PRES REMARKS Philadelphia PTCLDY 74 52 46 S7 29.90R Allentown CLEAR 72 46 39 W5 29.90R Scranton PTCLDY 70 45 40 SW7 29.89S $$ CTZ002-004>006-009-010-012-RIZ004-006-007-MAZ004-011-015-272300- SOUTHERN NEW ENGLAND IN CT CITY SKY/WX TMP DP RH WIND PRES REMARKS Bradley INTL PTCLDY 71 55 56 SE5 29.89R Hartford CLEAR 70 57 63 SE5 29.88R Danbury CLEAR 70 53 54 VRB5 29.91R Wtrbury/Oxford MOCLDY 70 57 64 CALM 29.93S Bridgeport PTCLDY 71 59 65 SE6 29.89R Meriden PTCLDY 72 59 63 S7 29.89R New Haven PTCLDY 69 59 70 S3 29.90R Chester FAIR 68 61 77 S5 29.91R Groton PTCLDY 70 62 76 S6 29.91R Wilimantic CLOUDY 72 61 68 SE3 29.90S IN RI CITY SKY/WX TMP DP RH WIND PRES REMARKS Providence CLOUDY 69 62 78 S7 29.91R Block Island MOCLDY 67 63 87 S6 29.93R Westerly CLOUDY 69 61 75 S7 29.92R IN MA CITY SKY/WX TMP DP RH WIND PRES REMARKS Boston CLOUDY 65 60 84 E12 29.92R Worcester PTCLDY 68 53 58 CALM 29.92S Westfield CLEAR 71 55 56 CALM 29.89R Provincetown CLOUDY 64 60 87 NE5 29.93R Nantucket CLOUDY 66 65 96 SW5 29.93R $$ ANZ330-335-338-340-345-350-353-355-272300- COASTAL MARINE OBSERVATIONS STATION/POSITION TIME SKY/WX TEMP WIND PRES VSBY WAVE AIR SEA DIR/SP/G HT/PER (UTC) (F) (DEG/KT/KT) (MB) (MI) (FT/S) NY HARB ENTRANCE 2050 70 72 170/ 8/ 8 1012.3 4/ 7 20S FIRE ISLAND 2050 68 70 210/ 8/ 10 1012.2 5/ 7 GREAT SOUTH BAY 2130 69 70 200/ 8/ 10 N/A 23 SSW MONTAUK P 2050 67 68 210/ 4/ 6 1012.9 5/ 7 15 E BARNEGAT LI 2130 71 N/A 4/ 7 HUDSON CANYON 2050 68 69 1013.0 6/ 8 KINGS POINT 2124 74 73 1011.7 EXECUTION ROCKS 2145 74 200/ 6/ 8 N/A CENTRAL LI SOUND NOT AVBL EASTERN LI SOUND NOT AVBL ROBBINS REEF 2124 73 200/ 7/ 9 1012.1 $$ >>>>>>>>>>>>>>>>>>>>>>>>>>>> KEY <<<<<<<<<<<<<<<<<<<<<<<<<<< > < > SKY/WX - Sky Condition/Present Weather < > TMP - Temperature in Fahrenheit < > DP - Dew Point in Fahrenheit < > RH - Relative Humidity in Percent < > WIND - Direction (from) and Speed in MPH < > PRES - Mean Sea Level Pressure (inches of Hg) < > WCI - Wind Chill Index < > VSB - VISIBILITY IN MILES < > HX - HEAT INDEX < > TC - TEMPERATURE IN CELSIUS < > VRB - VARIABLE WIND DIRECTION < > < >>>>>>>>>>>>>>>>>>>>>>>>>>>> KEY <<<<<<<<<<<<<<<<<<<<<<<<<<<

USA.gov is the U.S. government's official web portal to all federal, state and local government web resources and services.